LAN1498 LTFM-LTBS

Flight info

Callsign LAN1498
Flight time 0h 54m
Altitude 36000
Route RATVU UT35 NUMTI DCT KULAR/N0460F350 UT44 ATSAL
Aircraft A320/M-SDE3FGHIRWY/LB1

Departure

Time 2026-05-06 02:53
Airport İstanbul Airport (LTFM)

Arrival

Time 2026-05-06 03:47
Airport Dalaman International Airport (LTBS)
Time Latitude Longitude Altitude Speed Heading
2026-05-06 02:41 41.26163 28.73616 334 ft 0 kts 107°
2026-05-06 02:42 41.26167 28.73600 330 ft 2 kts 106°
2026-05-06 02:42 41.26170 28.73583 330 ft 2 kts 105°
2026-05-06 02:43 41.26174 28.73566 333 ft 2 kts 103°
2026-05-06 02:43 41.26177 28.73549 333 ft 2 kts 97°
2026-05-06 02:43 41.26179 28.73534 334 ft 1 kts 75°
2026-05-06 02:43 41.26177 28.73525 332 ft 1 kts 38°
2026-05-06 02:44 41.26172 28.73520 333 ft 1 kts 17°
2026-05-06 02:44 41.26167 28.73517 329 ft 1 kts
2026-05-06 02:44 41.26161 28.73516 330 ft 1 kts
2026-05-06 02:44 41.26157 28.73515 330 ft 0 kts
2026-05-06 02:46 41.26174 28.73516 332 ft 4 kts 359°
2026-05-06 02:46 41.26208 28.73496 329 ft 7 kts 315°
2026-05-06 02:46 41.26220 28.73417 333 ft 11 kts 271°
2026-05-06 02:46 41.26219 28.73294 333 ft 15 kts 269°
2026-05-06 02:47 41.26216 28.73153 333 ft 15 kts 269°
2026-05-06 02:47 41.26214 28.73012 334 ft 15 kts 269°
2026-05-06 02:47 41.26213 28.72867 334 ft 16 kts 269°
2026-05-06 02:47 41.26210 28.72718 334 ft 17 kts 268°
2026-05-06 02:48 41.26207 28.72561 334 ft 18 kts 269°
2026-05-06 02:48 41.26208 28.72393 332 ft 19 kts 268°
2026-05-06 02:48 41.26214 28.72219 331 ft 18 kts 302°
2026-05-06 02:48 41.26320 28.72183 333 ft 15 kts 359°
2026-05-06 02:49 41.26418 28.72181 330 ft 13 kts 359°
2026-05-06 02:49 41.26499 28.72160 330 ft 11 kts 323°
2026-05-06 02:49 41.26519 28.72076 334 ft 9 kts 269°
2026-05-06 02:49 41.26518 28.72002 334 ft 7 kts 269°
2026-05-06 02:50 41.26518 28.71915 334 ft 13 kts 270°
2026-05-06 02:50 41.26520 28.71762 334 ft 20 kts 272°
2026-05-06 02:50 41.26516 28.71548 334 ft 25 kts 262°
2026-05-06 02:50 41.26509 28.71310 332 ft 26 kts 269°
2026-05-06 02:51 41.26505 28.71065 334 ft 27 kts 268°
2026-05-06 02:51 41.26502 28.70829 334 ft 23 kts 270°
2026-05-06 02:51 41.26539 28.70737 332 ft 5 kts
2026-05-06 02:51 41.26542 28.70737 334 ft 0 kts
2026-05-06 02:52 41.26627 28.70738 333 ft 43 kts 359°
2026-05-06 02:52 41.27171 28.70718 329 ft 110 kts 358°
2026-05-06 02:52 41.28119 28.70701 332 ft 160 kts 359°
2026-05-06 02:52 41.29306 28.70672 751 ft 168 kts 359°
2026-05-06 02:53 41.30469 28.70645 1499 ft 164 kts 354°
2026-05-06 02:53 41.31532 28.70063 1944 ft 180 kts 318°
2026-05-06 02:53 41.32500 28.68835 2157 ft 204 kts 317°
2026-05-06 02:53 41.33629 28.67466 2366 ft 235 kts 319°
2026-05-06 02:54 41.35045 28.66198 2938 ft 250 kts 330°
2026-05-06 02:54 41.36562 28.65045 3858 ft 251 kts 329°
2026-05-06 02:54 41.37796 28.63419 4806 ft 255 kts 299°
2026-05-06 02:54 41.38198 28.61133 5696 ft 262 kts 278°
2026-05-06 02:55 41.38251 28.58677 6531 ft 268 kts 274°
2026-05-06 02:55 41.38160 28.56168 7287 ft 276 kts 264°
2026-05-06 02:55 41.37363 28.53782 8034 ft 293 kts 234°
2026-05-06 02:55 41.35733 28.52106 8792 ft 305 kts 204°
2026-05-06 02:56 41.33628 28.51617 9546 ft 312 kts 180°
2026-05-06 02:56 41.31444 28.51630 10313 ft 316 kts 179°
2026-05-06 02:56 41.29186 28.51700 10613 ft 337 kts 176°
2026-05-06 02:56 41.26799 28.52244 10791 ft 359 kts 161°
2026-05-06 02:57 41.24452 28.53638 10958 ft 379 kts 146°
2026-05-06 02:57 41.22357 28.55876 11074 ft 396 kts 130°
2026-05-06 02:57 41.20530 28.58692 11382 ft 407 kts 127°
2026-05-06 02:57 41.18687 28.61580 11940 ft 412 kts 127°
2026-05-06 02:58 41.16837 28.64472 12540 ft 415 kts 128°
2026-05-06 02:58 41.14960 28.67398 13155 ft 418 kts 128°
2026-05-06 02:58 41.13072 28.70351 13711 ft 421 kts 126°
2026-05-06 02:58 41.11389 28.73529 14208 ft 422 kts 120°
2026-05-06 02:59 41.09778 28.76796 14707 ft 425 kts 120°
2026-05-06 02:59 41.08178 28.80057 15196 ft 428 kts 120°
2026-05-06 02:59 41.06548 28.83370 15664 ft 431 kts 122°
2026-05-06 02:59 41.04592 28.86415 16100 ft 437 kts 135°
2026-05-06 03:00 41.02166 28.88879 16581 ft 442 kts 148°
2026-05-06 03:00 40.99376 28.90618 17027 ft 446 kts 161°
2026-05-06 03:00 40.96356 28.91539 17485 ft 448 kts 174°
2026-05-06 03:00 40.93236 28.91605 17953 ft 449 kts 186°
2026-05-06 03:01 40.90116 28.91212 18419 ft 451 kts 186°
2026-05-06 03:01 40.86980 28.90952 18807 ft 454 kts 180°
2026-05-06 03:01 40.83815 28.91162 19184 ft 456 kts 177°
2026-05-06 03:01 40.80637 28.91428 19557 ft 458 kts 177°
2026-05-06 03:02 40.77447 28.91689 19925 ft 460 kts 177°
2026-05-06 03:02 40.74244 28.91949 20286 ft 463 kts 177°
2026-05-06 03:02 40.71018 28.92206 20632 ft 465 kts 177°
2026-05-06 03:02 40.67789 28.92462 20982 ft 467 kts 178°
2026-05-06 03:03 40.64543 28.92721 21324 ft 469 kts 177°
2026-05-06 03:03 40.61290 28.92982 21668 ft 471 kts 177°
2026-05-06 03:03 40.58032 28.93534 21986 ft 474 kts 169°
2026-05-06 03:03 40.54847 28.94714 22313 ft 477 kts 160°
2026-05-06 03:04 40.51820 28.96494 22619 ft 479 kts 151°
2026-05-06 03:04 40.48971 28.98799 22882 ft 482 kts 147°
2026-05-06 03:04 40.46159 29.01205 23168 ft 484 kts 147°
2026-05-06 03:04 40.43322 29.03625 23445 ft 486 kts 147°
2026-05-06 03:05 40.40482 29.06042 23717 ft 488 kts 147°
2026-05-06 03:05 40.37618 29.08473 23958 ft 490 kts 147°
2026-05-06 03:05 40.34760 29.10896 24202 ft 492 kts 147°
2026-05-06 03:05 40.31915 29.13304 24460 ft 493 kts 147°
2026-05-06 03:06 40.29035 29.15742 24806 ft 492 kts 147°
2026-05-06 03:06 40.26167 29.18172 25152 ft 490 kts 147°
2026-05-06 03:06 40.23312 29.20589 25497 ft 490 kts 147°
2026-05-06 03:06 40.20448 29.23001 25855 ft 489 kts 148°
2026-05-06 03:07 40.17443 29.25069 26224 ft 488 kts 156°
2026-05-06 03:07 40.14284 29.26636 26527 ft 488 kts 160°
2026-05-06 03:07 40.11086 29.28145 26819 ft 490 kts 160°
2026-05-06 03:07 40.07885 29.29658 27173 ft 489 kts 160°
2026-05-06 03:08 40.04685 29.31177 27547 ft 489 kts 160°
2026-05-06 03:08 40.01487 29.32697 27923 ft 488 kts 160°
2026-05-06 03:08 39.98301 29.34211 28303 ft 487 kts 160°
2026-05-06 03:08 39.95118 29.35722 28686 ft 486 kts 160°
2026-05-06 03:09 39.91939 29.37231 29051 ft 486 kts 160°
2026-05-06 03:09 39.88779 29.38767 29428 ft 485 kts 158°
2026-05-06 03:09 39.85649 29.40409 29784 ft 484 kts 157°
2026-05-06 03:09 39.82560 29.42124 30154 ft 483 kts 156°
2026-05-06 03:10 39.79481 29.43882 30465 ft 483 kts 156°
2026-05-06 03:10 39.76451 29.45616 30777 ft 482 kts 156°
2026-05-06 03:10 39.74381 29.46788 30983 ft 481 kts 156°
2026-05-06 03:10 39.70202 29.48717 31369 ft 481 kts 168°
2026-05-06 03:11 39.66899 29.49296 31662 ft 479 kts 179°
2026-05-06 03:11 39.63579 29.49084 31962 ft 477 kts 190°
2026-05-06 03:11 39.61386 29.48515 32163 ft 475 kts 197°
2026-05-06 03:11 39.57330 29.46477 32556 ft 470 kts 211°
2026-05-06 03:12 39.55480 29.45039 32739 ft 468 kts 216°
2026-05-06 03:12 39.52766 29.42705 33041 ft 468 kts 216°
2026-05-06 03:12 39.50053 29.40378 33330 ft 467 kts 216°
2026-05-06 03:12 39.47337 29.38055 33610 ft 468 kts 216°
2026-05-06 03:13 39.44623 29.35743 33913 ft 467 kts 216°
2026-05-06 03:13 39.41906 29.33434 34208 ft 467 kts 216°
2026-05-06 03:13 39.39193 29.31132 34469 ft 466 kts 216°
2026-05-06 03:13 39.36492 29.28847 34733 ft 465 kts 216°
2026-05-06 03:14 39.33802 29.26571 34989 ft 464 kts 216°
2026-05-06 03:14 39.31101 29.24289 35254 ft 463 kts 216°
2026-05-06 03:14 39.28412 29.22014 35516 ft 460 kts 216°
2026-05-06 03:14 39.25760 29.19769 35628 ft 452 kts 216°
2026-05-06 03:15 39.23157 29.17565 35750 ft 444 kts 217°
2026-05-06 03:15 39.20594 29.15397 35875 ft 437 kts 217°
2026-05-06 03:15 39.18064 29.13260 36020 ft 434 kts 217°
2026-05-06 03:15 39.15564 29.11148 36125 ft 438 kts 217°
2026-05-06 03:16 39.13002 29.08984 36139 ft 443 kts 217°
2026-05-06 03:16 39.07788 29.04594 36136 ft 453 kts 217°
2026-05-06 03:17 39.02447 29.00113 36141 ft 463 kts 216°
2026-05-06 03:17 38.97027 28.95569 36127 ft 466 kts 217°
2026-05-06 03:18 38.91583 28.91006 36139 ft 467 kts 216°
2026-05-06 03:18 38.86133 28.86454 36141 ft 468 kts 216°
2026-05-06 03:19 38.80668 28.81905 36136 ft 468 kts 217°
2026-05-06 03:19 38.75198 28.77357 36136 ft 468 kts 217°
2026-05-06 03:20 38.67003 28.70547 36126 ft 468 kts 217°
2026-05-06 03:20 38.61466 28.66221 36106 ft 473 kts 208°
2026-05-06 03:21 38.55094 28.63926 36101 ft 482 kts 188°
2026-05-06 03:21 38.48313 28.64098 36086 ft 486 kts 179°
2026-05-06 03:22 38.41600 28.64661 36084 ft 488 kts 179°
2026-05-06 03:22 38.34808 28.65212 36089 ft 489 kts 179°
2026-05-06 03:23 38.28016 28.65766 36088 ft 490 kts 179°
2026-05-06 03:23 38.21208 28.66323 36088 ft 491 kts 179°
2026-05-06 03:24 38.14385 28.66886 36109 ft 491 kts 179°
2026-05-06 03:24 38.07596 28.67448 36096 ft 490 kts 179°
2026-05-06 03:25 38.00872 28.68008 35772 ft 475 kts 179°
2026-05-06 03:25 37.97600 28.68275 35020 ft 468 kts 179°
2026-05-06 03:25 37.94382 28.68534 34257 ft 462 kts 179°
2026-05-06 03:26 37.91185 28.68793 33420 ft 457 kts 179°
2026-05-06 03:26 37.88005 28.69051 32109 ft 462 kts 179°
2026-05-06 03:26 37.84762 28.69310 30731 ft 470 kts 179°
2026-05-06 03:26 37.81498 28.69570 29600 ft 470 kts 179°
2026-05-06 03:27 37.78253 28.69831 28556 ft 465 kts 179°
2026-05-06 03:27 37.75051 28.70093 27616 ft 457 kts 179°
2026-05-06 03:27 37.71896 28.70353 26729 ft 450 kts 179°
2026-05-06 03:27 37.68796 28.70595 25854 ft 443 kts 179°
2026-05-06 03:28 37.65742 28.70814 25017 ft 436 kts 179°
2026-05-06 03:28 37.62732 28.71023 24168 ft 431 kts 180°
2026-05-06 03:28 37.59752 28.71224 23267 ft 426 kts 180°
2026-05-06 03:28 37.56781 28.71424 21748 ft 433 kts 179°
2026-05-06 03:29 37.53775 28.71630 20188 ft 442 kts 179°
2026-05-06 03:29 37.50707 28.72125 19157 ft 447 kts 169°
2026-05-06 03:29 37.47630 28.73202 18791 ft 461 kts 161°
2026-05-06 03:29 37.44636 28.74670 18451 ft 472 kts 159°
2026-05-06 03:30 37.41573 28.76204 18038 ft 473 kts 159°
2026-05-06 03:30 37.38516 28.77734 17662 ft 472 kts 159°
2026-05-06 03:30 37.35479 28.79261 17287 ft 469 kts 159°
2026-05-06 03:30 37.32462 28.80786 16922 ft 467 kts 159°
2026-05-06 03:31 37.29460 28.82312 16544 ft 464 kts 159°
2026-05-06 03:31 37.26489 28.83824 16246 ft 453 kts 159°
2026-05-06 03:31 37.23627 28.85274 16106 ft 436 kts 159°
2026-05-06 03:31 37.20859 28.86670 15981 ft 420 kts 159°
2026-05-06 03:32 37.18234 28.87994 15827 ft 395 kts 159°
2026-05-06 03:32 37.15767 28.89236 15697 ft 371 kts 159°
2026-05-06 03:32 37.13417 28.90415 15405 ft 355 kts 159°
2026-05-06 03:32 37.11146 28.91552 14910 ft 349 kts 159°
2026-05-06 03:33 37.08907 28.92675 14345 ft 345 kts 158°
2026-05-06 03:33 37.06695 28.93785 13775 ft 341 kts 158°
2026-05-06 03:33 37.04514 28.94878 13284 ft 333 kts 158°
2026-05-06 03:33 37.02361 28.95958 13149 ft 333 kts 158°
2026-05-06 03:34 37.00216 28.97035 12862 ft 331 kts 158°
2026-05-06 03:34 36.98081 28.98109 12556 ft 329 kts 158°
2026-05-06 03:34 36.95930 28.99057 12266 ft 327 kts 167°
2026-05-06 03:34 36.93700 28.99398 11963 ft 323 kts 182°
2026-05-06 03:35 36.91467 28.99079 11492 ft 322 kts 197°
2026-05-06 03:35 36.89328 28.98323 11175 ft 318 kts 198°
2026-05-06 03:35 36.87189 28.97577 10842 ft 317 kts 198°
2026-05-06 03:35 36.85073 28.96853 10510 ft 314 kts 198°
2026-05-06 03:36 36.83003 28.96150 9935 ft 311 kts 197°
2026-05-06 03:36 36.80929 28.95444 9302 ft 307 kts 197°
2026-05-06 03:36 36.78855 28.94737 8842 ft 305 kts 197°
2026-05-06 03:36 36.76846 28.94051 8427 ft 306 kts 197°
2026-05-06 03:37 36.74807 28.93349 8034 ft 305 kts 197°
2026-05-06 03:37 36.72784 28.92652 7763 ft 298 kts 197°
2026-05-06 03:37 36.70793 28.91967 7387 ft 296 kts 196°
2026-05-06 03:37 36.68811 28.91286 7001 ft 292 kts 196°
2026-05-06 03:38 36.66920 28.90637 6841 ft 271 kts 196°
2026-05-06 03:38 36.65141 28.90028 6538 ft 260 kts 196°
2026-05-06 03:38 36.63420 28.89442 6099 ft 254 kts 196°
2026-05-06 03:38 36.61737 28.88869 5886 ft 248 kts 196°
2026-05-06 03:39 36.60070 28.88302 5753 ft 248 kts 196°
2026-05-06 03:39 36.58409 28.87737 5540 ft 247 kts 195°
2026-05-06 03:39 36.56757 28.87175 5302 ft 245 kts 195°
2026-05-06 03:39 36.55114 28.86614 5057 ft 244 kts 196°
2026-05-06 03:40 36.53476 28.86057 4804 ft 243 kts 196°
2026-05-06 03:40 36.51848 28.85503 4536 ft 242 kts 197°
2026-05-06 03:40 36.50291 28.84743 4261 ft 239 kts 212°
2026-05-06 03:40 36.49109 28.83332 4093 ft 238 kts 240°
2026-05-06 03:41 36.48409 28.81414 3859 ft 243 kts 257°
2026-05-06 03:41 36.48212 28.79417 3739 ft 233 kts 274°
2026-05-06 03:41 36.48511 28.77482 3611 ft 227 kts 292°
2026-05-06 03:41 36.49265 28.75782 3488 ft 217 kts 310°
2026-05-06 03:42 36.50321 28.74516 3369 ft 207 kts 326°
2026-05-06 03:42 36.51553 28.73705 3226 ft 200 kts 342°
2026-05-06 03:42 36.52891 28.73347 3129 ft 192 kts 356°
2026-05-06 03:42 36.54165 28.73488 3053 ft 177 kts 12°
2026-05-06 03:43 36.55319 28.73830 2944 ft 166 kts 13°
2026-05-06 03:43 36.56417 28.74188 2763 ft 161 kts 15°
2026-05-06 03:43 36.57484 28.74545 2566 ft 158 kts 15°
2026-05-06 03:43 36.58521 28.74895 2368 ft 151 kts 14°
2026-05-06 03:44 36.59500 28.75226 2177 ft 142 kts 15°
2026-05-06 03:44 36.60436 28.75544 1985 ft 138 kts 14°
2026-05-06 03:44 36.61361 28.75858 1797 ft 137 kts 14°
2026-05-06 03:44 36.62277 28.76170 1616 ft 137 kts 14°
2026-05-06 03:45 36.63191 28.76492 1419 ft 137 kts 14°
2026-05-06 03:45 36.64111 28.76798 1229 ft 136 kts 15°
2026-05-06 03:45 36.65027 28.77109 1039 ft 137 kts 15°
2026-05-06 03:45 36.65945 28.77422 871 ft 137 kts 15°
2026-05-06 03:46 36.66872 28.77726 692 ft 138 kts 17°
2026-05-06 03:46 36.67785 28.78049 510 ft 137 kts 16°
2026-05-06 03:46 36.68707 28.78349 347 ft 137 kts 16°
2026-05-06 03:46 36.69625 28.78659 166 ft 137 kts 18°
2026-05-06 03:47 36.70536 28.78987 16 ft 133 kts 16°
2026-05-06 03:47 36.71208 28.79225 13 ft 58 kts 14°
2026-05-06 03:47 36.71475 28.79310 14 ft 35 kts 14°
2026-05-06 03:47 36.71704 28.79386 12 ft 34 kts 15°
2026-05-06 03:48 36.71901 28.79430 12 ft 23 kts
2026-05-06 03:48 36.72062 28.79408 12 ft 24 kts 348°
2026-05-06 03:48 36.72213 28.79363 12 ft 16 kts 355°
2026-05-06 03:48 36.72285 28.79278 12 ft 15 kts 291°
2026-05-06 03:49 36.72307 28.79160 12 ft 13 kts 277°
2026-05-06 03:49 36.72324 28.79068 12 ft 8 kts 286°
2026-05-06 03:49 36.72326 28.79060 12 ft 0 kts 286°